Back to catalog

FENGYUN 1C DEB

AliveSSO
NORAD 30415·DEBRIS·🇨🇳 China

Launched May 10, 1999 from Taiyuan Satellite Launch Center

Loading…

Next Passes (next 24 hours)

TLE

FreshSource: Space-Track

Epoch: Sep 14, 2026, 10:14 UTC

1 30415U 99025AEE 26257.42669399  .00001047  00000-0  10401-2 0  9998
2 30415  99.6340 322.9617 0231148 281.1529  90.0378 13.69588088976514

Track FENGYUN 1C DEB in real time with AllMySat

Download on the App Store